Location: Aufkirchen
(47.9603°N, 11.3653°E)
Time: 07:07:03
(UTC+02:00)

Nauka - Visible Passes

Search period start: 23 September 2021 00:00
Search period end: 03 October 2021 00:00
Orbit: 419 x 424 km, 51.6° (Epoch: 22 September)

Date Brightness Start Highest point End Pass type
(mag) Time Alt. Az. Time Alt. Az. Time Alt. Az.
23 Sep ? 20:11:36 10° W 20:14:55 55° NNW 20:17:41 14° ENE visible
23 Sep ? 21:48:52 10° WNW 21:50:41 27° NW 21:50:41 27° NW visible
24 Sep ? 21:01:53 10° WNW 21:05:07 42° N 21:05:31 40° NNE visible
25 Sep ? 20:14:52 10° WNW 20:18:06 43° N 20:20:21 17° ENE visible
25 Sep ? 21:51:56 10° WNW 21:53:20 22° WNW 21:53:20 22° WNW visible
26 Sep ? 19:27:50 10° W 19:31:06 46° N 19:34:23 10° ENE visible
26 Sep ? 21:05:01 10° WNW 21:08:09 49° N 21:08:09 49° N visible
27 Sep ? 20:18:02 10° WNW 20:21:19 44° N 20:22:58 24° ENE visible
27 Sep ? 21:54:57 10° WNW 21:55:58 18° WNW 21:55:58 18° WNW visible
28 Sep ? 19:31:03 10° WNW 19:34:17 42° N 19:37:31 10° ENE visible
28 Sep ? 21:08:00 10° WNW 21:10:47 56° NW 21:10:47 56° NW visible
29 Sep ? 20:21:04 10° WNW 20:24:26 62° NNE 20:25:38 35° E visible
29 Sep ? 21:58:05 10° WNW 21:58:38 14° W 21:58:38 14° W visible
30 Sep ? 19:34:08 10° WNW 19:37:26 51° NNE 19:40:31 11° E visible
30 Sep ? 21:11:02 10° WNW 21:13:31 39° WSW 21:13:31 39° WSW visible
01 Oct ? 20:24:03 10° WNW 20:27:25 73° SSW 20:28:27 41° SE visible
02 Oct ? 19:37:06 10° WNW 19:40:29 82° NNE 19:43:26 13° ESE visible
02 Oct ? 21:14:22 10° W 21:16:26 21° WSW 21:16:26 21° WSW visible
